Tracking 19242 objects as of 16-Aug-2018
HD Live streaming from Space Station
objects crossing your sky now

GALAXY 3R

Track GALAXY 3R now!
GALAXY 3R is classified as:


NORAD ID: 23741
Int'l Code: 1995-069A
Perigee: 35,777.0 km
Apogee: 35,779.0 km
Inclination: 10.5 °
Period: 1,435.3 minutes
Semi major axis: 42148 km
RCS: 12.3125 m2 (large)
Launch date: December 15, 1995
Source: United States (US)
Launch site: AIR FORCE EASTERN TEST RANGE (AFETR)

24 C-band, 16 Ku-band; North America, Caribbean; 140 television channels.
aabbcc
Your satellite tracking list
Your tracking list is empty




NASA's NSSDC Master Catalog

Two Line Element Set (TLE):
1 23741U 95069A   18227.50285164 -.00000169 +00000-0 +00000-0 0  9994
2 23741 010.5356 036.2429 0000242 258.9937 109.9461 01.00328074083114
Source of the keplerian elements: AFSPC